This is the latest recevied weather packets stored in our database for station/object K7LDN-13. If no packets are shown the sender has not sent any weather packets the latest 10 day(s).
| Time | Temp. | Humidity | Pressure | Rain* | Wind** | Luminosity | Snow |
|---|---|---|---|---|---|---|---|
| 1777343868 | 5.56° C | 83% | 1016.7 hPa | 0 mm | - | 0 W/m² | - |
| 1777343565 | 5.56° C | 83% | 1016.3 hPa | 0 mm | - | 1 W/m² | - |
| 1777343262 | 5.56° C | 82% | 1016.5 hPa | 0 mm | - | 1 W/m² | - |
| 1777342657 | 5.56° C | 83% | 1016.2 hPa | 0 mm | - | 5 W/m² | - |
| 1777342051 | 5.56° C | 85% | 1016.4 hPa | 0 mm | - | 11 W/m² | - |
| 1777341747 | 5.56° C | 84% | 1016.5 hPa | 0 mm | - | 13 W/m² | - |
| 1777341444 | 5.56° C | 84% | 1016.5 hPa | 0 mm | - | 17 W/m² | - |
| 1777340836 | 5.56° C | 85% | 1016.7 hPa | 0 mm | - | 18 W/m² | - |
| 1777340232 | 5.56° C | 85% | 1016.9 hPa | 0 mm | - | 20 W/m² | - |
| 1777339929 | 5.56° C | 85% | 1016.5 hPa | 0 mm | - | 32 W/m² | - |
| 1777339627 | 5.56° C | 85% | 1016.9 hPa | 0 mm | - | 24 W/m² | - |
| 1777339323 | 5° C | 85% | 1016.6 hPa | 0 mm | - | 22 W/m² | - |
| 1777339022 | 5° C | 86% | 1016.7 hPa | 0 mm | - | 23 W/m² | - |
| 1777338718 | 5° C | 86% | 1016.7 hPa | 0 mm | - | 26 W/m² | - |
| 1777337808 | 5° C | 87% | 1017 hPa | 0 mm | - | 27 W/m² | - |
| 1777337506 | 5° C | 87% | 1016.7 hPa | 0 mm | - | 27 W/m² | - |
| 1777336297 | 5° C | 86% | 1017.1 hPa | 0 mm | - | 73 W/m² | - |
| 1777335994 | 5° C | 86% | 1017 hPa | 0 mm | - | 84 W/m² | - |
| 1777335387 | 5° C | 86% | 1017 hPa | 0 mm | - | 124 W/m² | - |
| 1777335086 | 5° C | 86% | 1017.1 hPa | 0 mm | - | 126 W/m² | - |
| 1777334783 | 5° C | 86% | 1016.9 hPa | 0 mm | - | 126 W/m² | - |
| 1777332666 | 3.89° C | 93% | 1017 hPa | 0 mm | - | 234 W/m² | - |
| 1777332362 | 3.89° C | 93% | 1017.1 hPa | 0 mm | - | 197 W/m² | - |
| 1777312983 | 3.89° C | 93% | 1016.2 hPa | 0.51 mm | - | 143 W/m² | - |
| 1777311468 | 3.89° C | 93% | 1016.3 hPa | 0 mm | - | 106 W/m² | - |
* Rain latest hour (hover to see other rain measurements)
** Current wind speed in m/s (hover to see current wind gust speed)